Tomahawk, WI

9:07 AM CDT on May 23, 2017 (GMT -0500)
Tomahawk

Weather History for KTKV - April, 2013

Change the Weather History Date:

Monday, April 22, 2013

  Actual Average (KRHI) Record (KRHI)
Temperature  
Mean Temperature 36 °F -  
Max Temperature 39 °F 58 °F 89 °F (1980)
Min Temperature 32 °F 32 °F 18 °F (1927)
Degree Days  
Heating Degree Days 30    
Moisture  
Dew Point 35 °F    
Average Humidity 95    
Maximum Humidity 100    
Minimum Humidity 93    
Precipitation  
Precipitation 0.02 in - - ()
Sea Level Pressure  
Sea Level Pressure 30.11 in    
Wind  
Wind Speed 4 mph (NE)    
Max Wind Speed 12 mph    
Max Gust Speed 16 mph    
Visibility 4 miles    
Events Fog , Rain    
Averages and records for this station are not official NWS values.
T = Trace of Precipitation, MM = Missing Value Source: NWS Daily Summary

Daily Weather History Graph

Daily Weather History Graph

Search for Another Location

Airport or City:

Trip Planner

Search our weather history database for the weather conditions in past years. The results will help you decide how hot, cold, wet, or windy it might be!

Date:

Astronomy

Apr. 22, 2013 Rise Set
Actual Time 6:01 AM CDT 7:54 PM CDT
Civil Twilight 5:29 AM CDT 8:26 PM CDT
Nautical Twilight 4:50 AM CDT 9:05 PM CDT
Astronomical Twilight 4:08 AM CDT 9:48 PM CDT
Moon 4:35 PM CDT (4/22) 4:05 AM CDT (4/22)
Length of Visible Light 14h 56m
Length of Day
13h 53m
Waxing Gibbous, 88% of the Moon is Illuminated
Apr 22
Waxing Gibbous
Apr 25
Full
May 2
Last Quarter
May 9
New
May 17
First Quarter

Hourly Weather History & Observations

Time (CDT) Temp. Windchill Dew Point Humidity Pressure Visibility Wind Dir Wind Speed Gust Speed Precip Events Conditions
12:15 AM 32.0 °F 28.7 °F 32.0 °F 100% 30.14 in 4.0 mi SSE 3.5 mph - N/A   Drizzle
12:35 AM 33.8 °F 30.8 °F 32.0 °F 93% 30.14 in 4.0 mi SSE 3.5 mph - N/A   Overcast
12:55 AM 33.8 °F 30.8 °F 32.0 °F 93% 30.13 in 5.0 mi SSE 3.5 mph - N/A Rain Light Rain
1:15 AM 33.8 °F 28.6 °F 32.0 °F 93% 30.13 in 5.0 mi SSE 5.8 mph - N/A   Overcast
1:35 AM 35.6 °F 30.7 °F 33.8 °F 93% 30.12 in 5.0 mi SSE 5.8 mph - N/A   Light Drizzle
1:55 AM 35.6 °F 29.9 °F 33.8 °F 93% 30.11 in 4.0 mi South 6.9 mph - N/A   Drizzle
2:15 AM 35.6 °F 30.7 °F 33.8 °F 93% 30.11 in 5.0 mi SSE 5.8 mph - N/A   Overcast
2:35 AM 35.6 °F 31.7 °F 33.8 °F 93% 30.11 in 5.0 mi South 4.6 mph - N/A   Light Drizzle
2:55 AM 35.6 °F 31.7 °F 35.6 °F 100% 30.11 in 5.0 mi SSE 4.6 mph - N/A Rain Light Rain
3:15 AM 35.6 °F 30.7 °F 35.6 °F 100% 30.11 in 7.0 mi South 5.8 mph - N/A   Overcast
3:35 AM 35.6 °F 31.7 °F 35.6 °F 100% 30.12 in 7.0 mi South 4.6 mph - N/A   Overcast
3:55 AM 37.4 °F 34.9 °F 35.6 °F 93% 30.11 in 5.0 mi South 3.5 mph - N/A Rain Light Rain
4:15 AM 37.4 °F 34.9 °F 35.6 °F 93% 30.11 in 5.0 mi South 3.5 mph - N/A   Overcast
4:35 AM 37.4 °F 33.8 °F 35.6 °F 93% 30.12 in 3.0 mi South 4.6 mph - N/A   Heavy Drizzle
4:55 AM 37.4 °F 34.9 °F 35.6 °F 93% 30.12 in 3.0 mi South 3.5 mph - N/A   Overcast
5:15 AM 37.4 °F - 35.6 °F 93% 30.12 in 4.0 mi Calm Calm - N/A   Overcast
5:35 AM 37.4 °F - 35.6 °F 93% 30.13 in 4.0 mi Calm Calm - N/A   Overcast
5:55 AM 37.4 °F - 35.6 °F 93% 30.13 in 3.0 mi Calm Calm - 0.01 in   Overcast
6:15 AM 37.4 °F - 35.6 °F 93% 30.14 in 3.0 mi Calm Calm - N/A   Light Drizzle
6:35 AM 37.4 °F - 37.4 °F 100% 30.14 in 1.2 mi Calm Calm - N/A   Drizzle
6:55 AM 37.4 °F - 35.6 °F 93% 30.14 in 0.8 mi Calm Calm - N/A   Overcast
7:15 AM 37.4 °F - 37.4 °F 100% 30.15 in 0.8 mi Calm Calm - N/A   Overcast
7:35 AM 37.4 °F - 37.4 °F 100% 30.15 in 0.8 mi Calm Calm - N/A   Overcast
7:55 AM 37.4 °F - 37.4 °F 100% 30.15 in 0.5 mi Calm Calm - N/A Fog Fog
8:15 AM 39.2 °F - 37.4 °F 93% 30.15 in 0.8 mi Calm Calm - N/A   Overcast
8:35 AM 37.4 °F - 37.4 °F 100% 30.16 in 0.5 mi Calm Calm - N/A Fog Fog
8:55 AM 39.2 °F - 37.4 °F 93% 30.16 in 0.8 mi Calm Calm - N/A   Overcast
9:15 AM 39.2 °F - 37.4 °F 93% 30.16 in 1.0 mi Calm Calm - N/A   Overcast
9:35 AM 39.2 °F 37.0 °F 37.4 °F 93% 30.16 in 1.5 mi NNW 3.5 mph - N/A   Overcast
9:55 AM 39.2 °F 37.0 °F 37.4 °F 93% 30.16 in 1.8 mi North 3.5 mph - N/A   Overcast
10:15 AM 39.2 °F 37.0 °F 37.4 °F 93% 30.16 in 4.0 mi North 3.5 mph - N/A   Overcast
10:35 AM 37.4 °F 31.4 °F 35.6 °F 93% 30.16 in 2.5 mi North 8.1 mph - N/A   Overcast
10:55 AM 37.4 °F 32.8 °F 35.6 °F 93% 30.16 in 3.0 mi North 5.8 mph - N/A   Overcast
11:15 AM 37.4 °F - 35.6 °F 93% 30.17 in 3.0 mi Calm Calm - N/A   Overcast
11:35 AM 37.4 °F 33.8 °F 35.6 °F 93% 30.17 in 5.0 mi NNE 4.6 mph - N/A   Overcast
11:55 AM 37.4 °F 33.8 °F 35.6 °F 93% 30.16 in 5.0 mi North 4.6 mph - N/A   Overcast
12:15 PM 37.4 °F 34.9 °F 35.6 °F 93% 30.17 in 5.0 mi North 3.5 mph - N/A   Overcast
12:35 PM 37.4 °F 32.8 °F 35.6 °F 93% 30.16 in 4.0 mi NNW 5.8 mph - N/A   Overcast
12:55 PM 37.4 °F 34.9 °F 35.6 °F 93% 30.16 in 3.0 mi NNW 3.5 mph - N/A   Overcast
1:15 PM 37.4 °F - 35.6 °F 93% 30.16 in 4.0 mi Calm Calm - N/A Rain Light Rain
1:35 PM 37.4 °F 32.8 °F 35.6 °F 93% 30.16 in 2.0 mi NNW 5.8 mph - N/A Rain Light Rain
1:55 PM 37.4 °F 34.9 °F 35.6 °F 93% 30.16 in 3.0 mi North 3.5 mph - N/A Rain Light Rain
2:15 PM 37.4 °F 32.8 °F 35.6 °F 93% 30.15 in 3.0 mi North 5.8 mph - N/A Rain Light Rain
2:35 PM 37.4 °F 32.8 °F 35.6 °F 93% 30.14 in 4.0 mi North 5.8 mph - N/A   Drizzle
2:55 PM 37.4 °F 32.8 °F 35.6 °F 93% 30.13 in 7.0 mi NNE 5.8 mph - N/A   Drizzle
3:15 PM 37.4 °F 31.4 °F 35.6 °F 93% 30.12 in 4.0 mi NE 8.1 mph - 0.01 in Rain Rain
3:35 PM 37.4 °F 32.8 °F 35.6 °F 93% 30.12 in 4.0 mi NE 5.8 mph - 0.01 in   Light Drizzle
3:55 PM 37.4 °F 32.8 °F 35.6 °F 93% 30.11 in 10.0 mi NE 5.8 mph - 0.01 in   Overcast
4:15 PM 37.4 °F 33.8 °F 35.6 °F 93% 30.10 in 5.0 mi ENE 4.6 mph - N/A Rain Light Rain
4:35 PM 37.4 °F 32.8 °F 35.6 °F 93% 30.09 in 10.0 mi ENE 5.8 mph - N/A   Overcast
4:55 PM 37.4 °F 32.8 °F 35.6 °F 93% 30.09 in 5.0 mi ENE 5.8 mph - N/A   Drizzle
5:15 PM 37.4 °F 33.8 °F 35.6 °F 93% 30.07 in 4.0 mi ENE 4.6 mph - N/A Rain Light Rain
5:35 PM 37.4 °F 31.4 °F 35.6 °F 93% 30.07 in 2.5 mi ENE 8.1 mph - N/A Rain Light Rain
5:55 PM 37.4 °F 32.1 °F 35.6 °F 93% 30.05 in 2.5 mi NE 6.9 mph - N/A Rain Light Rain
6:15 PM 37.4 °F 32.8 °F 35.6 °F 93% 30.05 in 3.0 mi NE 5.8 mph - N/A Rain Rain
6:35 PM 37.4 °F - 35.6 °F 93% 30.06 in 2.5 mi Calm Calm - N/A Rain Rain
6:55 PM 37.4 °F - 35.6 °F 93% 30.06 in 3.0 mi Calm Calm - N/A Rain Rain
7:15 PM 35.6 °F - 35.6 °F 100% 30.06 in 3.0 mi Calm Calm - N/A Rain Rain
7:35 PM 35.6 °F 30.7 °F 35.6 °F 100% 30.06 in 5.0 mi NNW 5.8 mph - N/A Rain Rain
7:55 PM 35.6 °F 32.8 °F 35.6 °F 100% 30.06 in 4.0 mi NNE 3.5 mph - N/A Rain Rain
8:15 PM 35.6 °F 29.9 °F 35.6 °F 100% 30.06 in 5.0 mi NNE 6.9 mph - N/A Rain Rain
8:35 PM 35.6 °F 31.7 °F 33.8 °F 93% 30.06 in 5.0 mi NNE 4.6 mph - N/A Rain Rain
8:55 PM 35.6 °F 31.7 °F 33.8 °F 93% 30.06 in 5.0 mi NNE 4.6 mph - N/A Rain Light Rain
9:15 PM 35.6 °F 30.7 °F 33.8 °F 93% 30.06 in 4.0 mi North 5.8 mph - N/A Rain Rain
9:35 PM 35.6 °F 31.7 °F 33.8 °F 93% 30.05 in 4.0 mi North 4.6 mph - N/A Rain Rain
9:55 PM 35.6 °F 29.9 °F 33.8 °F 93% 30.05 in 5.0 mi NNE 6.9 mph - N/A Rain Rain
10:15 PM 33.8 °F 28.6 °F 33.8 °F 100% 30.05 in 5.0 mi North 5.8 mph - N/A Rain Heavy Rain
10:35 PM 33.8 °F 25.3 °F 32.0 °F 93% 30.03 in 5.0 mi NNE 11.5 mph 16.1 mph N/A Rain Light Rain
10:55 PM 32.0 °F 25.6 °F 32.0 °F 100% 30.03 in 5.0 mi NNE 6.9 mph - N/A   Drizzle
11:15 PM 32.0 °F 27.5 °F 32.0 °F 100% 30.03 in 5.0 mi NNE 4.6 mph - N/A   Light Drizzle
11:35 PM 32.0 °F 28.7 °F 32.0 °F 100% 30.02 in 7.0 mi NE 3.5 mph - N/A Rain Light Rain
11:55 PM 32.0 °F 28.7 °F 32.0 °F 100% 30.01 in 3.0 mi NNE 3.5 mph - N/A Rain Heavy Rain